Location: Ammerl�gen
(47.2167°N, 9.6000°E)
Time: 12:59:14
(UTC+00:00)

FENGYUN 1C DEB - Visible Passes

Search period start: 06 December 2021 00:00
Search period end: 16 December 2021 00:00
Orbit: 636 x 865 km, 98.3° (Epoch: 05 December)

Date Brightness Start Highest point End Pass type
(mag) Time Alt. Az. Time Alt. Az. Time Alt. Az.
06 Dec ? 16:24:22 10° ESE 16:28:16 20° ENE 16:32:03 10° NNE visible
06 Dec ? 18:00:59 10° S 18:06:30 71° WSW 18:11:47 10° NNW visible
06 Dec ? 19:45:01 10° W 19:46:01 10° W 19:47:01 10° WNW visible
07 Dec ? 06:05:47 10° NE 06:09:47 27° E 06:13:35 10° SSE visible
07 Dec ? 17:20:21 10° SSE 17:25:41 55° ENE 17:30:48 10° N visible
07 Dec ? 19:00:18 10° SW 19:04:38 24° W 19:08:53 10° NW visible
08 Dec ? 05:27:02 10° ENE 05:28:21 11° E 05:29:41 10° ESE visible
08 Dec ? 16:40:37 10° ESE 16:45:05 27° ENE 16:49:23 10° N visible
08 Dec ? 18:18:13 10° S 18:23:32 51° W 18:28:39 10° NNW visible
09 Dec ? 16:02:13 10° E 16:04:41 13° NE 16:07:06 10° NNE visible
09 Dec ? 17:37:12 10° SSE 17:42:38 75° ENE 17:47:50 10° N visible
09 Dec ? 19:18:21 10° SW 19:21:49 17° W 19:25:12 10° NW visible
10 Dec ? 05:42:41 10° NE 05:45:32 16° E 05:48:19 10° SE visible
10 Dec ? 16:57:04 10° SE 17:01:56 35° ENE 17:06:35 10° N visible
10 Dec ? 18:35:37 10° SSW 18:40:36 36° W 18:45:24 10° NNW visible
11 Dec ? 16:18:01 10° E 16:21:26 18° ENE 16:24:46 10° NNE visible
11 Dec ? 17:54:12 10° S 17:59:37 80° WSW 18:04:47 10° NNW visible
11 Dec ? 19:37:12 10° WSW 19:39:01 12° W 19:40:50 10° WNW visible
12 Dec ? 05:59:02 10° NE 06:02:40 23° E 06:06:10 10° SE visible
12 Dec ? 17:13:42 10° SE 17:18:50 48° ENE 17:23:42 10° N visible
12 Dec ? 18:53:15 10° SSW 18:57:42 26° W 19:02:00 10° NW visible
13 Dec ? 16:34:09 10° ESE 16:38:14 23° ENE 16:42:09 10° NNE visible
13 Dec ? 18:11:21 10° S 18:16:38 57° W 18:21:38 10° NNW visible
14 Dec ? 06:15:39 10° NNE 06:19:44 33° E 06:23:42 10° SSE visible
14 Dec ? 17:30:28 10° SSE 17:35:45 66° ENE 17:40:45 10° N visible
14 Dec ? 19:11:11 10° SW 19:14:51 19° W 19:18:22 10° NW visible
15 Dec ? 05:36:10 10° ENE 05:38:24 14° E 05:40:37 10° ESE visible
15 Dec ? 16:50:31 10° SE 16:55:03 31° ENE 16:59:24 10° N visible
15 Dec ? 18:28:41 10° SSW 18:33:40 40° W 18:38:24 10° NNW visible
